Apalachicola, FL

3:55 AM EDT on August 31, 2016 (GMT -0400)
Apalachicola Municipal

Weather History for KAAF - July, 2013

Change the Weather History Date:

Saturday, July 20, 2013

  Actual Average Record
Temperature  
Mean Temperature 80 °F 82 °F  
Max Temperature 86 °F 91 °F 98 °F (1942)
Min Temperature 74 °F 74 °F 70 °F (1967)
Degree Days  
Heating Degree Days 0    
Month to date heating degree days 0  
Since 1 June heating degree days 0  
Since 1 July heating degree days 0  
Cooling Degree Days 15    
Month to date cooling degree days 309  
Year to date cooling degree days 1196  
Since 1 June cooling degree days 815  
Growing Degree Days 28 (Base 50)    
Moisture  
Dew Point 73 °F    
Average Humidity 84    
Maximum Humidity 94    
Minimum Humidity 74    
Precipitation  
Precipitation 0.81 in 0.24 in 2.14 in (1945)
Month to date precipitation 7.88 4.36  
Year to date precipitation 31.04 29.01  
Sea Level Pressure  
Sea Level Pressure 30.03 in    
Wind  
Wind Speed 9 mph (SW)    
Max Wind Speed 25 mph    
Max Gust Speed 33 mph    
Visibility 8 miles    
Events Rain    
T = Trace of Precipitation, MM = Missing Value Source: NWS Daily Summary

Daily Weather History Graph

Daily Weather History Graph

Search for Another Location

Airport or City:

Trip Planner

Search our weather history database for the weather conditions in past years. The results will help you decide how hot, cold, wet, or windy it might be!

Date:

Astronomy

Jul. 20, 2013 Rise Set
Actual Time 6:52 AM EDT 8:39 PM EDT
Civil Twilight 6:26 AM EDT 9:06 PM EDT
Nautical Twilight 5:54 AM EDT 9:38 PM EDT
Astronomical Twilight 5:20 AM EDT 10:11 PM EDT
Moon 6:43 PM EDT (7/20) 4:31 AM EDT (7/20)
Length of Visible Light 14h 40m
Length of Day
13h 47m
Waxing Gibbous, 93% of the Moon is Illuminated
Jul 20
Waxing Gibbous
Jul 22
Full
Jul 29
Last Quarter
Aug 6
New
Aug 14
First Quarter

Hourly Weather History & Observations

Time (EDT) Temp. Heat Index Dew Point Humidity Pressure Visibility Wind Dir Wind Speed Gust Speed Precip Events Conditions
12:39 AM 78.8 °F - 73.4 °F 83% 30.04 in 10.0 mi South 11.5 mph - 0.00 in Rain Light Rain
12:53 AM 80.1 °F 84.5 °F 73.9 °F 81% 30.05 in 10.0 mi SSW 10.4 mph - 0.00 in   Mostly Cloudy
1:53 AM 80.1 °F 84.2 °F 73.0 °F 79% 30.04 in 10.0 mi SSW 8.1 mph - N/A   Scattered Clouds
2:53 AM 80.1 °F 84.2 °F 73.0 °F 79% 30.03 in 10.0 mi SSW 9.2 mph - N/A   Overcast
3:53 AM 79.0 °F - 75.0 °F 88% 30.03 in 10.0 mi SSW 17.3 mph 20.7 mph 0.00 in   Mostly Cloudy
4:53 AM 79.0 °F - 73.9 °F 84% 30.01 in 10.0 mi SSW 6.9 mph - N/A   Clear
5:53 AM 79.0 °F - 73.9 °F 84% 30.01 in 10.0 mi SSW 12.7 mph - 0.03 in   Mostly Cloudy
6:06 AM 78.8 °F - 73.4 °F 83% 30.01 in 10.0 mi SSW 9.2 mph - N/A   Scattered Clouds
6:53 AM 80.1 °F 84.2 °F 73.0 °F 79% 30.03 in 10.0 mi SSW 10.4 mph - N/A   Scattered Clouds
7:53 AM 81.0 °F 86.2 °F 73.9 °F 79% 30.04 in 10.0 mi SSW 12.7 mph - N/A   Mostly Cloudy
8:53 AM 82.0 °F 87.9 °F 73.9 °F 76% 30.06 in 10.0 mi SW 13.8 mph - N/A   Mostly Cloudy
9:26 AM 77.0 °F - 71.6 °F 83% 30.07 in 10.0 mi West 12.7 mph 21.9 mph 0.00 in Rain Light Rain
9:36 AM 75.2 °F - 71.6 °F 89% 30.08 in 6.0 mi West 13.8 mph 17.3 mph 0.00 in Rain Rain
9:46 AM 75.2 °F - 71.6 °F 89% 30.08 in 2.5 mi West 15.0 mph 24.2 mph 0.01 in Rain Heavy Rain
9:53 AM 73.9 °F - 71.1 °F 91% 30.08 in 1.0 mi West 9.2 mph - 0.10 in Rain Heavy Rain
10:06 AM 75.2 °F - 71.6 °F 89% 30.08 in 3.0 mi West 4.6 mph - 0.08 in Rain Light Rain
10:53 AM 78.1 °F - 73.9 °F 87% 30.08 in 10.0 mi WNW 6.9 mph - 0.09 in Rain Light Rain
11:40 AM 78.8 °F - 73.4 °F 83% 30.08 in 10.0 mi West 6.9 mph - 0.00 in Rain Light Rain
11:53 AM 78.1 °F - 75.0 °F 90% 30.07 in 10.0 mi WSW 5.8 mph - 0.00 in Rain Light Rain
12:12 PM 78.8 °F - 75.2 °F 89% 30.07 in 10.0 mi Calm Calm - 0.00 in Rain Light Rain
12:19 PM 78.8 °F - 75.2 °F 89% 30.07 in 10.0 mi Calm Calm - 0.00 in Rain Light Rain
12:34 PM 80.6 °F 86.2 °F 75.2 °F 84% 30.06 in 10.0 mi Calm Calm - 0.00 in   Scattered Clouds
12:53 PM 80.1 °F 85.1 °F 75.0 °F 85% 30.06 in 10.0 mi Calm Calm - 0.00 in   Clear
1:53 PM 82.9 °F 89.4 °F 73.9 °F 74% 30.04 in 10.0 mi South 11.5 mph - N/A   Partly Cloudy
2:02 PM 84.2 °F 92.3 °F 75.2 °F 74% 30.04 in 10.0 mi SW 8.1 mph - N/A   Partly Cloudy
2:53 PM 84.9 °F 94.1 °F 75.9 °F 74% 30.03 in 10.0 mi SSW 12.7 mph - N/A   Scattered Clouds
3:53 PM 84.9 °F 94.1 °F 75.9 °F 74% 30.02 in 10.0 mi SSW 11.5 mph - 0.02 in   Clear
4:38 PM 82.4 °F 89.5 °F 75.2 °F 79% 30.00 in 10.0 mi SSW 11.5 mph - 0.00 in   Mostly Cloudy
4:45 PM 84.2 °F 92.3 °F 75.2 °F 74% 29.99 in 10.0 mi SSW 12.7 mph 19.6 mph 0.00 in   Mostly Cloudy
4:53 PM 81.0 °F 85.2 °F 72.0 °F 74% 30.01 in 2.5 mi WSW 28.8 mph 33.4 mph 0.00 in Rain Light Rain
4:58 PM 78.8 °F - 73.4 °F 83% 30.01 in 1.2 mi West 12.7 mph 33.4 mph 0.06 in Rain Heavy Rain
5:04 PM 78.8 °F - 73.4 °F 83% 30.01 in 2.5 mi WSW 16.1 mph 21.9 mph 0.07 in Rain Light Rain
5:11 PM 77.0 °F - 71.6 °F 83% 30.00 in 9.0 mi WSW 12.7 mph 21.9 mph 0.08 in Rain Rain
5:33 PM 78.8 °F - 71.6 °F 78% 30.02 in 1.8 mi SW 25.3 mph 33.4 mph 0.12 in Rain Heavy Rain
5:37 PM 77.0 °F - 71.6 °F 83% 30.01 in 0.8 mi South 6.9 mph 33.4 mph 0.23 in Rain Heavy Rain
5:45 PM 77.0 °F - 71.6 °F 83% 30.01 in 2.5 mi West 13.8 mph 20.7 mph 0.32 in Rain Light Rain
5:53 PM 75.9 °F - 73.0 °F 91% 30.01 in 1.5 mi West 10.4 mph - 0.36 in Rain Heavy Rain
6:06 PM 75.2 °F - 71.6 °F 89% 30.00 in 1.8 mi WNW 9.2 mph - 0.10 in Rain Heavy Rain
6:13 PM 75.2 °F - 71.6 °F 89% 30.00 in 3.0 mi West 6.9 mph - 0.13 in Rain Light Rain
6:36 PM 75.2 °F - 71.6 °F 89% 30.00 in 1.8 mi SSW 12.7 mph - 0.17 in Rain Heavy Rain
6:43 PM 75.2 °F - 71.6 °F 89% 30.00 in 3.0 mi SSW 10.4 mph 18.4 mph 0.20 in Rain Light Rain
6:53 PM 75.9 °F - 72.0 °F 87% 30.00 in 10.0 mi SW 9.2 mph - 0.21 in Rain Light Rain
7:53 PM 78.1 °F - 73.0 °F 84% 30.02 in 10.0 mi SSW 6.9 mph - 0.00 in   Partly Cloudy
8:53 PM 75.9 °F - 73.0 °F 91% 30.02 in 10.0 mi NNW 3.5 mph - 0.00 in   Partly Cloudy
9:53 PM 78.1 °F - 73.9 °F 87% 30.03 in 10.0 mi SW 3.5 mph - 0.00 in   Clear
10:53 PM 79.0 °F - 73.9 °F 84% 30.04 in 10.0 mi SW 4.6 mph - N/A   Clear
11:53 PM 79.0 °F - 75.0 °F 88% 30.07 in 10.0 mi SSW 3.5 mph - N/A   Clear